Flag for U.S.A. Weather past 2 weeks in San Jose, California, U.S.A.

Now
67 °F

Broken clouds.


Feels Like: 67 °F
Forecast: 66 / 83 °F
Wind: No wind

Location: San Jose International Airport

Current Time: Jul 2, 2015 at 9:48:01 AM

Latest Report: Jul 2, 2015 at 8:53 AM


Visibility: 10 mi

Pressure: 29.96 "Hg

Humidity: 76%

Dew point: 59 °F

Location of San JoseLocation

Historic Weather in San Jose — Graph

°F

San Jose temperature yesterday

Maximum temperature yesterday: 85 °F (at 10:53 AM)
Minimum temperature yesterday: 63 °F (at 4:53 AM)
Average temperature yesterday: 73 °F

Past Weeks' High & Low Weather Summary

 TemperatureHumidityPressure
High92 °F (Jun 30, 3:53 PM)90% (Jun 21, 1:53 AM)30.06 "Hg (Jun 21, 1:53 AM)
Low54 °F (Jun 18, 5:53 AM)25% (Jun 30, 3:53 PM)29.78 "Hg (Jun 30, 5:53 PM)
Average68 °F64%29.94 "Hg
* Reported Jun 17 7:53 AM — Jul 2 7:53 AM, San Jose, Weather by CustomWeather, © 2015

Note: Actual official high and low records may vary slightly from our data, if they occured in-between our weather recording intervals... More about our weather records

Advertising

San Jose weather history for previous 24 hours

 ConditionsComfort  
Time TempWeatherWind HumidityBarometerVisibility
7:53 AM
Thu, Jul 2
65 °FBroken clouds.No wind78%29.95 "Hg10 mi
6:53 AM64 °FBroken clouds.6 mph84%29.93 "Hg10 mi
5:53 AM65 °FMostly cloudy.8 mph87%29.91 "Hg10 mi
4:53 AM67 °FClear.7 mph81%29.89 "Hg10 mi
3:53 AM67 °FClear.6 mph81%29.90 "Hg10 mi
2:53 AM68 °FClear.5 mph76%29.89 "Hg10 mi
1:53 AM68 °FClear.6 mph76%29.90 "Hg10 mi
12:53 AM68 °FClear.No wind78%29.90 "Hg10 mi
11:53 PM
Wed, Jul 1
69 °FPassing clouds.7 mph73%29.89 "Hg10 mi
10:53 PM71 °FPassing clouds.6 mph68%29.91 "Hg10 mi
9:53 PM72 °FPartly cloudy.No wind64%29.89 "Hg10 mi
8:53 PM72 °FBroken clouds.No wind61%29.88 "Hg10 mi
7:53 PM73 °FBroken clouds.5 mph59%29.87 "Hg10 mi
6:53 PM74 °FBroken clouds.8 mph62%29.85 "Hg10 mi
5:53 PM76 °FBroken clouds.16 mph58%29.83 "Hg10 mi
4:53 PM77 °FBroken clouds.14 mph52%29.87 "Hg10 mi
3:53 PM81 °FBroken clouds.14 mph47%29.88 "Hg10 mi
2:53 PM82 °FBroken clouds.12 mph48%29.89 "Hg10 mi
1:53 PM83 °FBroken clouds.14 mph44%29.88 "Hg10 mi
12:53 PM83 °FBroken clouds.12 mph50%29.89 "Hg10 mi
11:53 AM84 °FBroken clouds.13 mph48%29.89 "Hg10 mi
10:53 AM85 °FBroken clouds.8 mph30%29.89 "Hg10 mi
9:53 AM79 °FBroken clouds.18 mph38%29.89 "Hg10 mi
Weather by CustomWeather, © 2015

See weather overviewHow to use our weather pages